Orbital Elements at Epoch 2459000.5 (2020-May-31.0) TDB
Reference: JPL 17 (heliocentric ecliptic J2000)
Element | Value | Uncertainty (1-sigma) | Units |
e | .1924396886708157 | 5.1804e-08 | |
a | 2.444027099547724 | 1.082e-08 | au |
q | 1.973699285407724 | 1.3124e-07 | au |
i | 3.370320312473577 | 5.2882e-06 | deg |
node | 188.2555409824494 | 7.4914e-05 | deg |
peri | 129.2886110902769 | 7.5739e-05 | deg |
M | 259.2606675302291 | 1.2301e-05 | deg |
tp | 2459391.029657454240 (2021-Jun-25.52965745) | 4.859e-05 | TDB |
period | 1395.588726237725 3.82 | 9.268e-06 2.537e-08 | d yr |
n | .257955652142949 | 1.7131e-09 | deg/d |
Q | 2.914354913687725 | 1.2903e-08 | au |
|
| | Orbit Determination Parameters
Additional Information
|